Regional Weather Roundup
Issued by NWS

Home | Current Version | Previous Version | Graphics & Text | Print | Product List | Glossary Off
Versions: 1 2 3 4 5 6 7 8 9 10 11 12 13 14 15 16 17 18 19 20 21 22 23 24 25 26 27 28 29 30 31 32 33 34 35 36 37 38 39 40 41 42 43 44 45 46 47 48 49 50

000
ASUS43 KFSD 251910
RWRSD

WEATHER ROUNDUP FOR SOUTH DAKOTA
NATIONAL WEATHER SERVICE SIOUX FALLS SD
200 PM CDT TUE APR 25 2017

NOTE: "FAIR" INDICATES FEW OR NO CLOUDS BELOW 12,000 FEET WITH NO
SIGNIFICANT WEATHER AND/OR OBSTRUCTIONS TO VISIBILITY.


SDZ001>005-009-010-012>017-252000-
NORTHWEST AND NORTH CENTRAL SOUTH DAKOTA

CITY           SKY/WX    TMP DP  RH WIND       PRES   REMARKS
BUFFALO          N/A     28  26  92 NE18      29.76R WCI  15
FAITH            N/A     28  27  96 N22       29.79R WCI  14
MOBRIDGE       CLOUDY    35  25  66 N16       29.76F WCI  25
$$

SDZ012>016-024>037-041>051-057-063-072>074-252000-
SOUTHWEST AND SOUTH CENTRAL SOUTH DAKOTA

CITY           SKY/WX    TMP DP  RH WIND       PRES   REMARKS
RAPID CTY ARPT FLURRIES  30  27  88 N18       29.77R WCI  18
PIERRE         CLOUDY    35  28  75 N16       29.75R WCI  25
CUSTER         LGT SNOW  26  22  84 NE10      29.65S FOG     WCI  16
ELLSWORTH AFB  LGT SNOW  30  30 100 N17       29.78  WCI  18
PHILIP         LGT SNOW  32  31  96 N13       29.79R VSB 3/4 WCI  22
PINE RIDGE     LGT SNOW  35  33  92 NE17      29.72S FOG     WCI  25
SPEARFISH      LGT SNOW  27  25  93 NE8       29.79R WCI  18
WINNER         FLURRIES  38  33  82 N14       29.71R
$$

SDZ004>011-016>023-039-040-252000-
NORTHEAST SOUTH DAKOTA

CITY           SKY/WX    TMP DP  RH WIND       PRES   REMARKS
ABERDEEN       CLOUDY    36  28  73 N22G31    29.72F
WATERTOWN      CLOUDY    35  32  88 N21       29.62F WCI  24
BROOKINGS      CLOUDY    38  34  85 N18       29.59F
SISSETON         N/A     37  33  85 N24       29.67F
$$

SDZ017-020-022-023-036>040-048>070-252000-
SOUTHEAST SOUTH DAKOTA

CITY           SKY/WX    TMP DP  RH WIND       PRES   REMARKS
SIOUX FALLS    RAIN      41  41 100 N12       29.57F FOG
HURON          CLOUDY    38  32  79 N20       29.68R
CHAMBERLAIN    CLOUDY    39  34  82 NW15G22   29.70R
MITCHELL       CLOUDY    40  34  79 N21       29.64F
YANKTON        CLOUDY    43  37  81 N14       29.59S
$$

ABBREVIATIONS USED IN REMARKS
   TC - TEMPERATURE IN CELSIUS
  WCI - WIND CHILL INDEX
   HX - HEAT INDEX
  VSB - VISIBILITY





USA.gov is the U.S. government's official web portal to all federal, state and local government web resources and services.